Regional Weather Roundup
Issued by NWS

Home | Current Version | Previous Version | Graphics & Text | Print | Product List | Glossary On
Versions: 1 2 3 4 5 6 7 8 9 10 11 12 13 14 15 16 17 18 19 20 21 22 23 24 25 26 27 28 29 30 31 32 33 34 35 36 37 38 39 40 41 42 43 44 45 46 47 48 49 50
000
ASUS43 KIND 160809
RWRIN

WEATHER ROUNDUP FOR INDIANA
NATIONAL WEATHER SERVICE INDIANAPOLIS IN
300 AM EST SAT DEC 16 2017

NOTE: "FAIR" INDICATES FEW OR NO CLOUDS BELOW 12,000 FEET WITH NO
SIGNIFICANT WEATHER AND/OR OBSTRUCTIONS TO VISIBILITY.

* - STATION DOES NOT REPORT WEATHER SUCH AS PRECIPITATION OR FOG.

+ - STATION NOT QUALITY CONTROLLED BY THE NATIONAL WEATHER SERVICE.
    USE DATA WITH CAUTION...ESPECIALLY DEWPOINT AND RELATIVE
    HUMIDITY OBSERVATIONS.

INZ001>003-010>013-019-020-160900-
NORTHWEST INDIANA

CITY           SKY/WX    TMP DP  RH WIND       PRES   REMARKS
GARY /AIRPORT/ CLOUDY    38  20  48 S7        29.90F WCI  32
KNOX *+        CLOUDY    34  23  64 SW14G23   29.93S WCI  24
LA PORTE +     CLOUDY    34  23  64 SW12G18   29.91S WCI  26
MICHIGAN CITY+ CLOUDY    36  23  60 SW14G21   29.91S WCI  27
MONTICELLO +   CLOUDY    35  20  55 SW12      29.97S WCI  26
RENSSELAER +   CLOUDY    34  18  51 SW12      29.95S WCI  25
VALPARAISO     CLOUDY    36  23  59 SW14      29.91F WCI  27

$$

LMZ046-743>745-160900-
SOUTHERN LAKE MICHIGAN

STATION/POSITION TIME  TEMP    WIND        PRES    WAVE
                       AIR SEA DIR/SP/G            HT
                 (UTC) (F)     (DEG/KT/KT) (MB)    (FT)
BURNS HARBOR     0740   37     220/ 20/ 23 1012.5F
MICHIGAN CITY    0740   37     200/ 20/ 22   N/A

$$

INZ004-005-014>016-021>024-160900-
NORTH CENTRAL INDIANA

CITY           SKY/WX    TMP DP  RH WIND       PRES   REMARKS
GOSHEN         CLOUDY    33  23  66 SW14      29.92R WCI  23
LOGANSPORT +   CLOUDY    34  23  64 SW13      29.99R WCI  25
PERU/GRISSOM   CLOUDY    34  22  60 SW15      29.97R WCI  24
ROCHESTER +    CLOUDY    36  25  64 SW12      29.95F WCI  27
SOUTH BEND     CLOUDY    34  24  67 SW12      29.91R WCI  25
WARSAW +       CLOUDY    32  23  69 SW13G21   29.94R WCI  22

$$

INZ006>009-017-018-025>027-160900-
NORTHEAST INDIANA

CITY           SKY/WX    TMP DP  RH WIND       PRES   REMARKS
AUBURN +       CLOUDY    34  23  64 SW9       29.94R WCI  26
FORT WAYNE     CLOUDY    34  25  69 SW15      29.97R WCI  24
HUNTINGTON +   CLOUDY    34  21  59 SW9G17    29.97R WCI  26
KENDALLVILLE + CLOUDY    33  23  68 SW13G20   29.92S WCI  23

$$

INZ028-029-035-036-043>045-051>053-160900-
WEST CENTRAL INDIANA

CITY           SKY/WX    TMP DP  RH WIND       PRES   REMARKS
CRAWFORDSVL +  CLOUDY    32  24  71 SW10      30.02R WCI  24
GREENCASTLE +  CLOUDY    32  23  69 S7        30.04S WCI  26
LAFAYETTE      CLOUDY    34  23  64 SW6       30.00R WCI  29
TERRE HAUTE    CLOUDY    34  24  67 S10       30.05S WCI  26

$$

INZ030>032-037>040-046>048-054>057-064-065-160900-
CENTRAL INDIANA

CITY           SKY/WX    TMP DP  RH WIND       PRES   REMARKS
FRANKFORT +    CLOUDY    36  25  65 SW16      30.01S WCI  26
GREENWOOD *+   CLOUDY    35  27  72 SW8       30.05R WCI  29
INDIANAPOLIS   CLOUDY    33  24  69 S10       30.04R WCI  25
-EAGLE CREEK   CLOUDY    34  23  64 SW6       30.03R WCI  29
KOKOMO +       CLOUDY    35  22  58 SW17G24   30.00R WCI  25
MARION +       CLOUDY    34  23  63 SW14      30.00R WCI  24
MT COMFORT *+  CLOUDY    32  27  80 SW9       30.04R WCI  24
SHELBYVILLE    CLOUDY    31  23  72 S9        30.05R WCI  23
ZIONSVILLE +   CLOUDY    32  23  68 SW15G21   30.02R WCI  22

$$

INZ033-034-041-042-049-050-058-059-160900-
EAST CENTRAL INDIANA

CITY           SKY/WX    TMP DP  RH WIND       PRES   REMARKS
MUNCIE         CLOUDY    34  23  64 SW13      30.00R WCI  25
RICHMOND +     CLOUDY    30  25  80 SW13      30.05R WCI  20

$$

INZ060-061-067>069-081>083-085>088-160900-
SOUTHWEST INDIANA

CITY           SKY/WX    TMP DP  RH WIND       PRES   REMARKS
EVANSVILLE     CLEAR     31  26  82 S5        30.12S WCI  26
HUNTINGBURG +  CLEAR     34  26  72 S9        30.12R WCI  27
WASHINGTON +   CLEAR     32  24  72 S10       30.10R WCI  24

$$

INZ062-063-066-070>080-084-089>092-160900-
SOUTH CENTRAL AND SOUTHEAST INDIANA

CITY           SKY/WX    TMP DP  RH WIND       PRES   REMARKS
BEDFORD +      PTCLDY    32  25  74 S6        30.08S WCI  26
BLOOMINGTON    CLOUDY    32  23  69 SW7       30.06R WCI  26
MADISON *+     CLOUDY    34  27  75 S8        30.11S WCI  27
NORTH VERNON + CLOUDY    30  23  74 S7        30.08S WCI  23
SEYMOUR +      PTCLDY    32  25  74 S8        30.09S WCI  25

$$





USA.gov is the U.S. government's official web portal to all federal, state and local government web resources and services.